Погода в Вуадиле

Узбекистан     40˚10′44″N   71˚43′46″E
темп.,
°C
ветер,
м/с
пор.,
м/с
влажн.,
%
обл.,
%
осадки,
мм/ч
давл.,
гПа
погр.,
м
5 декабря, сб
сб523:00+3˚юз3969100 0.8 1028639
02:00+3˚ююз296998 0.1 1029629
05:00+2˚ююз296595 0.1 1031582
08:00+2˚юв1266100 0.0 103277
11:00+3˚ссв215896 0.0 1029474
14:00+4˚св2254100 0.0 1027604
17:00+2˚ссв225998 0.0 103059
20:00+1˚в2263100 0.0 103126
6 декабря, вс
вс623:00ю116980 0.0 103122
02:00ю126750 0.0 103125
05:00−1˚ю116573 0.0 103222
08:00ю1161100 0.0 103322
11:00+3˚с115361 0.0 1030616
14:00+4˚всв11500 0.0 1028831
17:00+2˚ю225924 0.0 103028
20:00+1˚ю125971 0.0 103023
7 декабря, пн
пн723:00ююв116186 0.0 102922
02:00ю1157100 0.0 102824
05:00ююз1155100 0.0 102623
08:00ю1156100 0.0 102723
11:00+3˚сз1145100 0.0 1024341
14:00+4˚ссз2144100 0.0 1023538
17:00+3˚с2255100 0.0 102551
20:00+2˚ссз0163100 0.0 102624
8 декабря, вт
вт823:00зсз117092 0.0 102622
02:00−1˚сз0177100 0.0 102621
05:00сз1172100 0.0 102548
08:00−1˚всв1196100 0.7 102783
11:00с2296100 1.9 1028171
14:00с2197100 0.8 1027116
17:00ссв1298100 1.8 103095
20:00ссв1199100 1.2 103386
9 декабря, ср
ср923:00−1˚ссв1199100 1.9 103495
02:00св1198100 0.3 103593
05:00−1˚всв1299100 0.3 1035136
08:00в2294100 0.1 1036178
11:00+1˚всв128297 0.1 1033460
14:00+1˚всв128599 0.0 1030373
17:00св129289 0.0 103122
20:00−1˚ююв118886 0.0 103121